Tracking 28081 objects as of 27-Sep-2023
HD Live streaming from Space Station
objects crossing your sky now

STARLINK-3891

Track STARLINK-3891 now!
10-day predictions
STARLINK-3891 is classified as:


NORAD ID: 52650
Int'l Code: 2022-052BE
Perigee: 545.9 km
Apogee: 547.9 km
Inclination: 53.2 °
Period: 95.4 minutes
Semi major axis: 6917 km
RCS: Unknown
Launch date: May 14, 2022
Source: United States (US)
Launch site: AIR FORCE EASTERN TEST RANGE (AFETR)
Your satellite tracking list
Your tracking list is empty




NASA's NSSDC Master Catalog

Two Line Element Set (TLE):
1 52650U 22052BE  23269.42769560  .00000639  00000-0  58258-4 0  9990
2 52650  53.2161 308.2157 0001458  92.6946 267.4213 15.08836534 76122
Source of the keplerian elements: AFSPC